FW2284 Weather Reports


Display with metric or nautical units.
time (UTC)temp
F
wind
direction
speed
MPH
gust
MPH
rain 1hr
in
rain 24hr
in
rain mn
in
humidity
%
barometer
mb
20260906234501 86 68 1.0 6.0 0.00 0.00 0.00 53 1013.2
20260906233102 88 95 1.0 5.0 0.00 0.00 0.00 53 1013.1
20260906231610 88 52 1.0 8.0 0.00 0.00 0.00 54 1013.1
20260906224602 88 84 4.0 11.0 0.00 0.00 0.00 55 1012.4
20260906223056 88 84 3.0 11.0 0.00 0.00 0.00 55 1012.7
20260906221555 89 89 3.0 7.0 0.00 0.00 0.00 55 1012.8
20260906220055 89 76 3.0 10.0 0.00 0.00 0.00 52 1013.1
20260906214554 89 91 1.0 7.0 0.00 0.00 0.00 53 1013.3
20260906213052 89 290 1.0 9.0 0.00 0.00 0.00 54 1013.4
20260906211554 89 81 3.0 9.0 0.00 0.00 0.00 54 1013.6
20260906210055 89 143 3.0 8.0 0.00 0.00 0.00 52 1013.8
20260906204548 88 90 1.0 9.0 0.00 0.00 0.00 54 1013.9
20260906203048 87 184 1.0 10.0 0.00 0.00 0.00 55 1013.9
20260906201549 88 58 2.0 8.0 0.00 0.00 0.00 57 1013.7
20260906200045 87 111 2.0 8.0 0.00 0.00 0.00 57 1013.9
20260906194545 87 63 4.0 12.0 0.00 0.00 0.00 60 1014.1
20260906193044 87 77 3.0 13.0 0.00 0.00 0.00 58 1014.2
20260906191544 87 50 2.0 12.0 0.00 0.00 0.00 61 1014.3
20260906190041 87 47 2.0 7.0 0.00 0.00 0.00 62 1014.5
20260906184544 86 82 3.0 13.0 0.00 0.00 0.00 65 1014.8
20260906183046 85 65 1.0 8.0 0.00 0.00 0.00 64 1015.0
20260906181538 85 82 1.0 8.0 0.00 0.00 0.00 64 1015.6
20260906180036 85 96 1.0 7.0 0.00 0.00 0.00 65 1015.6
20260906174535 85 85 4.0 7.0 0.00 0.00 0.00 66 1015.7
20260906173032 83 65 4.0 14.0 0.00 0.00 0.00 68 1015.7
20260906171531 83 46 1.0 12.0 0.00 0.00 0.00 69 1015.7
20260906170032 82 88 2.0 10.0 0.00 0.00 0.00 72 1016.0
20260906164529 82 79 4.0 10.0 0.00 0.00 0.00 69 1015.9
20260906163029 83 97 6.0 13.0 0.00 0.00 0.00 68 1016.0
20260906161527 83 80 3.0 9.0 0.00 0.00 0.00 70 1016.0
20260906160027 83 25 1.0 7.0 0.00 0.00 0.00 71 1016.1
20260906154523 82 11 0.0 9.0 0.00 0.00 0.00 72 1015.9
20260906153027 81 325 2.0 9.0 0.00 0.00 0.00 74 1015.6
20260906151518 81 13 2.0 6.0 0.00 0.00 0.00 73 1015.4
20260906150017 81 86 3.0 8.0 0.00 0.00 0.00 75 1015.2
20260906144522 80 18 1.0 7.0 0.00 0.00 0.00 75 1015.1
20260906143012 80 25 0.0 7.0 0.00 0.00 0.00 76 1015.2
20260906141514 79 53 1.0 5.0 0.00 0.00 0.00 78 1015.0
20260906140016 78 96 0.0 6.0 0.00 0.00 0.00 80 1014.9
20260906134524 78 86 2.0 5.0 0.00 0.00 0.00 80 1014.9
20260906133008 77 340 1.0 6.0 0.00 0.00 0.00 81 1015.1
20260906131507 76 319 1.0 5.0 0.00 0.00 0.00 83 1015.0
20260906130010 75 341 0.0 4.0 0.00 0.00 0.00 85 1015.1
20260906124506 74 319 1.0 5.0 0.00 0.00 0.00 86 1015.0
20260906123004 74 351 0.0 4.0 0.00 0.00 0.00 88 1014.9
20260906121504 73 343 0.0 2.0 0.00 0.00 0.00 90 1014.7
20260906120002 72 329 0.0 1.0 0.00 0.00 0.00 91 1014.5
20260906114509 72 11 0.0 1.0 0.00 0.00 0.00 90 1014.2
20260906113005 72 24 0.0 1.0 0.00 0.00 0.00 90 1014.2
20260906111504 73 335 0.0 0.0 0.00 0.00 0.00 90 1014.1
20260906110003 73 351 0.0 1.0 0.00 0.00 0.00 90 1014.2
20260906104627 73 339 0.0 1.0 0.00 0.00 0.00 90 1013.9
20260906103056 74 13 0.0 1.0 0.00 0.00 0.00 90 1013.7
20260906101554 74 340 0.0 1.0 0.00 0.00 0.00 90 1013.7
20260906100053 75 1 0.0 2.0 0.00 0.00 0.00 89 1013.6
20260906094551 75 72 0.0 4.0 0.00 0.00 0.00 89 1013.5
20260906093105 75 58 0.0 1.0 0.00 0.00 0.00 89 1013.7
20260906091548 76 342 0.0 2.0 0.00 0.00 0.00 89 1013.6
20260906090045 76 51 0.0 1.0 0.00 0.00 0.00 90 1013.4
20260906084543 76 236 0.0 2.0 0.00 0.00 0.00 90 1013.3
20260906083044 77 359 0.0 3.0 0.00 0.00 0.00 90 1013.0
20260906081540 77 7 0.0 0.0 0.00 0.00 0.00 90 1012.9
20260906080040 77 113 0.0 1.0 0.00 0.00 0.00 89 1012.9
20260906074537 77 331 0.0 1.0 0.00 0.00 0.00 89 1013.0
20260906073037 77 347 0.0 0.0 0.00 0.00 0.00 88 1013.0
20260906071536 78 346 0.0 0.0 0.00 0.00 0.00 88 1013.1
20260906070035 78 346 0.0 0.0 0.00 0.00 0.00 87 1012.9
20260906064533 78 346 0.0 0.0 0.00 0.00 0.00 86 1012.9
20260906063032 78 346 0.0 0.0 0.00 0.00 0.00 85 1013.2
20260906061530 79 346 0.0 0.0 0.00 0.00 0.00 84 1013.2
20260906060031 78 346 0.0 0.0 0.00 0.00 0.00 84 1013.2
20260906054528 79 347 0.0 0.0 0.00 0.00 0.00 82 1013.1
20260906053027 79 347 0.0 0.0 0.00 0.00 0.00 81 1013.2
20260906051529 79 347 0.0 0.0 0.00 0.00 0.00 81 1013.2
20260906050026 80 347 0.0 0.0 0.00 0.00 0.00 79 1013.0
20260906044522 80 347 0.0 0.0 0.00 0.00 0.00 78 1013.0
20260906043022 80 347 0.0 0.0 0.00 0.00 0.00 76 1012.8
20260906041525 81 347 0.0 0.0 0.00 0.00 0.00 75 1012.7
20260906040020 81 347 0.0 0.0 0.00 0.00 0.00 74 1012.6
20260906034520 81 347 0.0 0.0 0.00 0.00 0.00 73 1012.5
20260906033019 82 347 0.0 0.0 0.00 0.00 0.00 70 1012.5
20260906031518 83 347 0.0 0.0 0.00 0.00 0.00 70 1012.4
20260906030018 83 347 0.0 0.0 0.00 0.00 0.00 70 1012.2
20260906024517 83 347 0.0 1.0 0.00 0.00 0.00 70 1012.1
20260906023021 83 349 0.0 0.0 0.00 0.00 0.00 70 1011.7
20260906021517 83 360 0.0 0.0 0.00 0.00 0.00 69 1011.5
20260906020016 83 360 0.0 0.0 0.00 0.00 0.00 69 1011.4
20260906014521 84 360 0.0 0.0 0.00 0.00 0.00 68 1011.1
20260906013023 84 360 0.0 0.0 0.00 0.00 0.00 66 1011.0
20260906011519 86 360 0.0 0.0 0.00 0.00 0.00 63 1010.9
20260906010014 87 360 0.0 0.0 0.00 0.00 0.00 60 1010.8
20260906004512 88 340 0.0 1.0 0.00 0.00 0.00 59 1010.6
20260906003012 89 337 0.0 1.0 0.00 0.00 0.00 58 1010.6
20260906001510 91 337 0.0 1.0 0.00 0.00 0.00 54 1010.7
20260906000010 92 326 0.0 4.0 0.00 0.00 0.00 52 1010.7